This is the latest recevied weather packets stored in our database for station/object N5LSN. If no packets are shown the sender has not sent any weather packets the latest 10 day(s).
| Time | Temp. | Humidity | Pressure | Rain* | Wind** | Luminosity | Snow |
|---|---|---|---|---|---|---|---|
| 1777865173 | 16.11° C | 79% | 1016.1 hPa | 0 mm | - | 0 W/m² | - |
| 1777864870 | 16.67° C | 78% | 1016.1 hPa | 0 mm | - | 0 W/m² | - |
| 1777864567 | 16.67° C | 77% | 1015.8 hPa | 0 mm | - | 0 W/m² | - |
| 1777864263 | 16.67° C | 77% | 1015.9 hPa | 0 mm | - | 0 W/m² | - |
| 1777863960 | 17.22° C | 77% | 1016 hPa | 0 mm | - | 0 W/m² | - |
| 1777863656 | 17.22° C | 76% | 1015.9 hPa | 0 mm | - | 0 W/m² | - |
| 1777863353 | 17.78° C | 74% | 1015.8 hPa | 0 mm | - | 0 W/m² | - |
| 1777863050 | 18.33° C | 73% | 1016 hPa | 0 mm | - | 0 W/m² | - |
| 1777862747 | 18.33° C | 73% | 1015.8 hPa | 0 mm | - | 0 W/m² | - |
| 1777862444 | 18.33° C | 72% | 1015.8 hPa | 0 mm | - | 0 W/m² | - |
| 1777862140 | 18.33° C | 71% | 1015.7 hPa | 0 mm | - | 0 W/m² | - |
| 1777861831 | 18.89° C | 71% | 1015.5 hPa | 0 mm | - | 0 W/m² | - |
| 1777861526 | 18.89° C | 71% | 1015.5 hPa | 0 mm | - | 0 W/m² | - |
| 1777861223 | 18.33° C | 72% | 1015.5 hPa | 0 mm | - | 0 W/m² | - |
| 1777860921 | 18.33° C | 71% | 1015.7 hPa | 0 mm | - | 0 W/m² | - |
| 1777860618 | 18.89° C | 71% | 1015.6 hPa | 0 mm | - | 0 W/m² | - |
| 1777860315 | 18.89° C | 70% | 1015.5 hPa | 0 mm | - | 0 W/m² | - |
| 1777860011 | 18.89° C | 69% | 1015.7 hPa | 0 mm | - | 0 W/m² | - |
| 1777859708 | 19.44° C | 69% | 1015.5 hPa | 0 mm | - | 0 W/m² | - |
| 1777859403 | 19.44° C | 68% | 1015.5 hPa | 0 mm | - | 0 W/m² | - |
| 1777859099 | 20° C | 66% | 1015.3 hPa | 0 mm | - | 0 W/m² | - |
| 1777858796 | 20° C | 65% | 1015.3 hPa | 0 mm | - | 0 W/m² | - |
| 1777858495 | 20.56° C | 65% | 1015.3 hPa | 0 mm | - | 0 W/m² | - |
| 1777858190 | 20.56° C | 63% | 1015.5 hPa | 0 mm | - | 0 W/m² | - |
| 1777857889 | 20.56° C | 63% | 1015.3 hPa | 0 mm | - | 0 W/m² | - |
* Rain latest hour (hover to see other rain measurements)
** Current wind speed in m/s (hover to see current wind gust speed)